[[{"header":{"parameterUnit":"m.s-1","parameterCategory":1,"la1":30.2991,"la2":30.254,"lo1":-89.0895,"lo2":-89.0444,"dy":0.0017,"dx":0.0017,"nx":28,"ny":28,"refTime":"2025-01-09T09:00:00:Z","depth":0,"parameterNumber":2,"parameterNumberName":"U-component_of_WINDS"},"data":[0,0,0,0,0,0,0,0,0,0,0,0,0,0,0,0,0,0,0,0,0,0,0,0,0,0,0,0,0,0,0,0,0,0,0,0,0,0,0,0,0,0,0,0,0,0,0,0,0,0,0,0,0,0,0,0,0,0,-4.2786,-4.2785,0,-4.272,-4.272,-4.2719,-4.2572,-4.2569,-4.2566,-4.2564,-4.2502,-4.2503,-4.2504,0,0,0,0,0,0,0,0,0,0,0,0,0,-4.2789,-4.279,-4.2786,-4.2785,-4.2784,-4.2721,-4.272,-4.2719,-4.2573,-4.2569,-4.2566,-4.2562,-4.2501,-4.2503,-4.2504,0,0,0,0,0,0,0,0,0,0,0,0,0,-4.2762,-4.279,-4.2786,-4.2704,-4.2696,-4.2721,-4.272,-4.2719,-4.2574,-4.2569,-4.2565,-4.256,-4.2501,-4.2502,-4.2504,-4.2606,0,0,-4.2509,-4.251,0,0,0,0,0,0,0,0,-4.2764,-4.2762,-4.2717,-4.2709,-4.27,-4.265,-4.2698,-4.2681,-4.2575,-4.262,-4.2563,-4.2558,-4.2555,-4.2552,-4.255,-4.2603,-4.26,-4.251,-4.2511,-4.2511,-4.2512,0,0,0,0,0,0,0,-4.2766,-4.2764,-4.276,-4.2716,-4.2706,-4.2671,-4.2663,-4.2694,-4.2614,-4.2616,-4.2605,-4.2599,-4.255,-4.2548,-4.2547,-4.2599,-4.251,-4.2511,-4.2512,-4.2513,-4.2733,-4.2737,0,0,0,0,0,0,-4.2779,-4.2767,-4.2762,-4.2758,-4.2721,-4.2675,-4.2665,-4.2671,-4.2613,-4.26,-4.2603,-4.2592,-4.2548,-4.2545,-4.2545,-4.266,-4.2511,-4.2513,-4.2514,-4.2728,-4.2734,-4.2739,0,0,0,0,0,0,-4.278,-4.278,-4.2765,-4.2759,-4.2755,-4.268,-4.2687,-4.2672,-4.267,-4.2603,-4.2589,-4.2616,-4.2544,-4.2542,-4.2591,-4.2656,-4.2514,-4.2515,-4.2723,-4.273,-4.2737,-4.2892,0,0,0,0,0,0,-4.278,-4.2781,-4.2818,-4.2761,-4.2756,-4.2812,-4.2691,-4.2674,-4.2673,-4.2659,-4.2612,-4.26,-4.254,-4.259,-4.2593,-4.2656,-4.2517,-4.2716,-4.2726,-4.2734,-4.2881,-4.2904,-4.2923,0,0,0,0,0,-4.2781,-4.2865,-4.2821,-4.2821,-4.28,-4.2816,-4.2813,-4.2741,-4.2679,-4.2716,-4.2673,-4.2601,-4.2648,-4.2596,-4.2599,-4.2663,-4.2712,-4.2723,-4.2734,-4.2872,-4.2899,-4.2923,0,0,0,0,0,0,-4.2933,-4.2856,-4.2806,-4.2874,-4.2852,-4.2791,-4.2836,-4.2773,-4.277,-4.2757,-4.2669,-4.266,-4.2722,-4.2697,-4.264,-4.2758,-4.2669,-4.268,-4.2772,-4.2798,-4.2819,-4.2825,-4.2518,0,0,0,0,0,-4.2974,-4.2992,-4.2924,-4.2991,-4.2983,-4.2912,-4.2916,-4.2862,-4.2837,-4.2828,-4.2788,-4.2768,-4.2778,-4.2786,-4.2792,-4.2876,-4.2865,-4.2922,-4.2943,-4.2961,-4.2973,-4.3017,-4.3042,-4.2775,-4.2775,-4.2774,0,0,-4.306,-4.302,-4.3037,-4.3021,-4.2998,-4.302,-4.2905,-4.2933,-4.2949,-4.2832,-4.2876,-4.2847,-4.2819,-4.2886,-4.2914,-4.2867,-4.3044,-4.2975,-4.2989,-4.2991,-4.303,-4.3056,-4.3078,-4.2782,-4.2781,-4.2779,0,0,-4.3228,-4.3199,-4.3251,-4.3231,-4.3196,-4.3148,-4.3162,-4.3109,-4.3085,-4.3127,-4.3041,-4.3059,-4.3078,-4.3061,-4.3056,-4.3218,-4.3152,-4.3222,-4.3333,-4.3377,-4.3398,-4.3416,-4.3475,-4.3497,-4.3233,-4.3234,-4.3234,0,-4.3339,-4.3367,-4.3287,-4.3321,-4.3317,-4.321,-4.3264,-4.3248,-4.3219,-4.3219,-4.3167,-4.3188,-4.3162,-4.3225,-4.3264,-4.3262,-4.3276,-4.3227,-4.3401,-4.3419,-4.3435,-4.349,-4.3512,-4.3243,-4.3242,-4.3241,-4.324,0,-4.3507,-4.3528,-4.3575,-4.3547,-4.3548,-4.3592,-4.352,-4.3531,-4.3478,-4.3436,-4.3481,-4.3445,-4.3442,-4.3453,-4.3402,-4.3509,-4.3481,-4.3417,-4.3325,-4.347,-4.3521,-4.3541,-4.3255,-4.3252,-4.3249,-4.3247,0,0,-4.3769,-4.3696,-4.3715,-4.3702,-4.3656,-4.3672,-4.3711,-4.3706,-4.3718,-4.3702,-4.3734,-4.3752,-4.3692,-4.3686,-4.3631,-4.367,-4.3802,-4.36,-4.3598,-4.364,-4.392,-4.397,-4.3996,-4.3758,-4.3761,-4.3764,-4.3923,0,-4.3927,-4.3989,-4.3918,-4.3995,-4.4015,-4.3914,-4.3949,-4.3926,-4.3888,-4.39,-4.3858,-4.3873,-4.3792,-4.3787,-4.3821,-4.3779,-4.3857,-4.3766,-4.3789,-4.379,-4.38,-4.4022,-4.4074,-4.4226,-4.3942,-4.3945,-4.3947,0,-4.412,-4.4111,-4.4191,-4.414,-4.4146,-4.4178,-4.4168,-4.418,-4.4153,-4.4123,-4.4116,-4.405,-4.4087,-4.3997,-4.4047,-4.3987,-4.3992,-4.3973,-4.3977,-4.3978,-4.3879,-4.403,-4.4272,-4.4296,-4.3977,-4.3975,-4.3973,0,-4.4306,-4.4313,-4.4362,-4.4353,-4.4296,-4.4321,-4.4299,-4.4266,-4.4268,-4.426,-4.4261,-4.4258,-4.4257,-4.4257,-4.4193,-4.4133,-4.4252,-4.4156,-4.423,-4.4232,-4.4261,-4.426,-4.4509,-4.4262,-4.4262,-4.4261,-4.4261,0,-4.449,-4.4543,-4.4444,-4.4474,-4.4531,-4.4449,-4.4508,-4.4475,-4.4448,-4.4471,-4.4384,-4.4408,-4.4321,-4.4337,-4.4287,-4.4337,-4.4337,-4.4315,-4.4302,-4.4324,-4.4327,-4.4327,-4.4315,-4.4267,-4.4266,-4.4265,-4.4264,0,-4.4708,-4.4643,-4.4689,-4.4631,-4.4617,-4.4662,-4.4612,-4.4639,-4.4595,-4.4625,-4.4628,-4.456,-4.4573,-4.4509,-4.4512,-4.4478,-4.4555,-4.4523,-4.4564,-4.4554,-4.4632,-4.4626,-4.4891,-4.4922,-4.4654,-4.4657,-4.4659,0,-4.483,-4.4868,-4.4814,-4.4822,-4.4804,-4.4819,-4.482,-4.4741,-4.4746,-4.4718,-4.4748,-4.4754,-4.4755,-4.4782,-4.4733,-4.4735,-4.4704,-4.4796,-4.4704,-4.4725,-4.4707,-4.4706,-4.471,-4.4816,-4.482,-4.4822,-4.4824,0,-4.5056,-4.5022,-4.5026,-4.5019,-4.5023,-4.5014,-4.5,-4.5012,-4.4927,-4.4938,-4.495,-4.495,-4.4952,-4.496,-4.4952,-4.4931,-4.4865,-4.4854,-4.4871,-4.4895,-4.4918,-4.4908,-4.4618,-4.4848,-4.4846,-4.4844,-4.4843,-4.4842,-4.523,-4.526,-4.5226,-4.5233,-4.5214,-4.5203,-4.5225,-4.5183,-4.5191,-4.5186,-4.5139,-4.516,-4.5132,-4.5114,-4.5099,-4.5116,-4.5073,-4.5098,-4.5104,-4.5112,-4.5126,-4.4914,-4.5114,-4.5113,-4.5113,-4.5112,-4.5112,0,-4.5452,-4.5425,-4.5433,-4.5415,-4.5422,-4.5356,-4.5337,-4.5348,-4.5367,-4.5346,-4.5348,-4.5363,-4.537,-4.5322,-4.5323,-4.5346,-4.5316,-4.5349,-4.5348,-4.5344,-4.5164,-4.515,-4.5374,-4.5374,-4.5373,-4.5373,-4.5373,-4.5373,-4.5569,-4.5616,-4.5578,-4.5615,-4.5587,-4.5606,-4.5601,-4.5591,-4.5573,-4.5593,-4.5598,-4.5566,-4.5535,-4.5533,-4.5537,-4.5523,-4.5528,-4.5572,-4.5549,-4.5382,-4.5356,-4.5332,-4.5318,-4.5574,-4.5574,-4.5727,-4.5728,-4.5729]},{"header":{"parameterUnit":"m.s-1","parameterCategory":1,"la1":30.2991,"la2":30.254,"lo1":-89.0895,"lo2":-89.0444,"dy":0.0017,"dx":0.0017,"nx":28,"ny":28,"refTime":"2025-01-09T09:00:00:Z","depth":0,"parameterNumber":3,"parameterNumberName":"V-component_of_WINDS"},"data":[0,0,0,0,0,0,0,0,0,0,0,0,0,0,0,0,0,0,0,0,0,0,0,0,0,0,0,0,0,0,0,0,0,0,0,0,0,0,0,0,0,0,0,0,0,0,0,0,0,0,0,0,0,0,0,0,0,0,-0.5807,-0.5807,0,-0.5847,-0.5847,-0.5848,-0.5847,-0.5847,-0.5846,-0.5846,-0.5889,-0.589,-0.5892,0,0,0,0,0,0,0,0,0,0,0,0,0,-0.5731,-0.5732,-0.5807,-0.5807,-0.5808,-0.5847,-0.5847,-0.5848,-0.5847,-0.5847,-0.5846,-0.5845,-0.5888,-0.589,-0.5892,0,0,0,0,0,0,0,0,0,0,0,0,0,-0.5767,-0.5733,-0.5807,-0.5812,-0.5813,-0.5847,-0.5847,-0.5848,-0.5847,-0.5847,-0.5846,-0.5845,-0.5888,-0.589,-0.5892,-0.5924,0,0,-0.59,-0.5901,0,0,0,0,0,0,0,0,-0.5765,-0.577,-0.5811,-0.5812,-0.5813,-0.5841,-0.5836,-0.5874,-0.5848,-0.5834,-0.5846,-0.5845,-0.5874,-0.5877,-0.5887,-0.5926,-0.5928,-0.59,-0.5902,-0.5903,-0.5903,0,0,0,0,0,0,0,-0.5762,-0.5768,-0.5823,-0.5811,-0.5813,-0.5813,-0.5817,-0.5843,-0.5858,-0.5836,-0.5836,-0.584,-0.5874,-0.5884,-0.5888,-0.5928,-0.59,-0.5902,-0.5904,-0.5905,-0.5995,-0.5995,0,0,0,0,0,0,-0.5758,-0.5766,-0.5821,-0.5824,-0.5786,-0.5815,-0.582,-0.5833,-0.5858,-0.5861,-0.5841,-0.584,-0.588,-0.5885,-0.5889,-0.5928,-0.5903,-0.5905,-0.5907,-0.5994,-0.5995,-0.5996,0,0,0,0,0,0,-0.5757,-0.5763,-0.582,-0.5795,-0.5802,-0.5817,-0.5832,-0.5834,-0.5844,-0.5862,-0.5865,-0.5848,-0.588,-0.5886,-0.5915,-0.5929,-0.5906,-0.5908,-0.5993,-0.5994,-0.5995,-0.6005,0,0,0,0,0,0,-0.5755,-0.5763,-0.5775,-0.5795,-0.5803,-0.5845,-0.5833,-0.5836,-0.5848,-0.5848,-0.587,-0.5873,-0.588,-0.5911,-0.5917,-0.5932,-0.591,-0.5992,-0.5993,-0.5995,-0.6003,-0.6006,-0.6009,0,0,0,0,0,-0.5752,-0.5777,-0.5776,-0.5782,-0.5819,-0.5846,-0.585,-0.5857,-0.5849,-0.5862,-0.5873,-0.5872,-0.5926,-0.5914,-0.5921,-0.5937,-0.5991,-0.5993,-0.5995,-0.6002,-0.6005,-0.6008,0,0,0,0,0,0,-0.5759,-0.5779,-0.5779,-0.581,-0.5826,-0.5845,-0.5862,-0.5861,-0.588,-0.5879,-0.5887,-0.5892,-0.5921,-0.5932,-0.5918,-0.5968,-0.5957,-0.5961,-0.596,-0.5964,-0.5967,-0.5964,-0.5912,0,0,0,0,0,-0.5764,-0.5784,-0.5801,-0.5827,-0.5835,-0.5847,-0.5859,-0.5862,-0.5879,-0.5886,-0.59,-0.5917,-0.5937,-0.5951,-0.5971,-0.6004,-0.6009,-0.6018,-0.6021,-0.6023,-0.6026,-0.6044,-0.6048,-0.6002,-0.6002,-0.6002,0,0,-0.5775,-0.5789,-0.5801,-0.5829,-0.5842,-0.5862,-0.5852,-0.5875,-0.589,-0.589,-0.5918,-0.5928,-0.5948,-0.5979,-0.5993,-0.5988,-0.6039,-0.6025,-0.6027,-0.6029,-0.6046,-0.6051,-0.6055,-0.6004,-0.6004,-0.6003,0,0,-0.5806,-0.5818,-0.5841,-0.5854,-0.5872,-0.588,-0.5885,-0.5904,-0.591,-0.5939,-0.5939,-0.5957,-0.5993,-0.6006,-0.6018,-0.6051,-0.6052,-0.6058,-0.6073,-0.609,-0.6093,-0.6097,-0.6109,-0.6113,-0.6061,-0.6061,-0.6061,0,-0.5818,-0.5849,-0.5854,-0.5876,-0.5888,-0.5887,-0.591,-0.5922,-0.5947,-0.5956,-0.5949,-0.5993,-0.6006,-0.604,-0.6048,-0.6057,-0.6064,-0.6056,-0.6092,-0.6096,-0.6099,-0.6111,-0.6115,-0.6061,-0.6061,-0.6061,-0.6061,0,-0.5862,-0.5883,-0.59,-0.5922,-0.5936,-0.5959,-0.5967,-0.5981,-0.5982,-0.599,-0.6019,-0.6034,-0.6057,-0.6064,-0.6067,-0.6099,-0.6095,-0.609,-0.608,-0.6104,-0.6115,-0.612,-0.6062,-0.6062,-0.6062,-0.6062,0,0,-0.5901,-0.5924,-0.5931,-0.594,-0.596,-0.5976,-0.5998,-0.602,-0.6031,-0.6047,-0.6067,-0.6095,-0.6091,-0.6104,-0.6108,-0.6123,-0.6148,-0.6116,-0.6117,-0.6122,-0.6184,-0.6188,-0.6193,-0.6147,-0.6148,-0.6149,-0.6182,0,-0.5935,-0.5974,-0.5978,-0.6013,-0.6032,-0.603,-0.605,-0.6064,-0.6071,-0.6089,-0.6097,-0.6118,-0.611,-0.6118,-0.6132,-0.6142,-0.6161,-0.614,-0.6166,-0.6167,-0.6163,-0.6199,-0.6204,-0.6235,-0.6187,-0.6188,-0.6188,0,-0.598,-0.5996,-0.6033,-0.6048,-0.6057,-0.6074,-0.6093,-0.6109,-0.6125,-0.6129,-0.6143,-0.6144,-0.6167,-0.6154,-0.6186,-0.6172,-0.6182,-0.6189,-0.619,-0.6194,-0.618,-0.6205,-0.6245,-0.625,-0.6195,-0.6195,-0.6194,0,-0.6005,-0.6036,-0.6062,-0.607,-0.6089,-0.6101,-0.611,-0.6124,-0.6136,-0.6153,-0.6161,-0.618,-0.6191,-0.6206,-0.6212,-0.6203,-0.6244,-0.6232,-0.6249,-0.6248,-0.6259,-0.6258,-0.6302,-0.6264,-0.6264,-0.6264,-0.6264,0,-0.6043,-0.6066,-0.6073,-0.6089,-0.6114,-0.6118,-0.6143,-0.6151,-0.6164,-0.6181,-0.6181,-0.6197,-0.6204,-0.6222,-0.6227,-0.6253,-0.6257,-0.6262,-0.6263,-0.6263,-0.6262,-0.6271,-0.6269,-0.6265,-0.6265,-0.6264,-0.6264,0,-0.6077,-0.6082,-0.611,-0.6125,-0.6129,-0.6147,-0.616,-0.6175,-0.6181,-0.6203,-0.6209,-0.6219,-0.6239,-0.6247,-0.6272,-0.6275,-0.6305,-0.6304,-0.63,-0.63,-0.6317,-0.6316,-0.6369,-0.6376,-0.6332,-0.6333,-0.6333,0,-0.6101,-0.6118,-0.6134,-0.6145,-0.6153,-0.6172,-0.6183,-0.6187,-0.62,-0.6218,-0.6231,-0.6251,-0.6268,-0.63,-0.631,-0.633,-0.633,-0.6347,-0.6333,-0.6331,-0.6331,-0.633,-0.6332,-0.635,-0.6351,-0.6351,-0.6351,0,-0.6144,-0.6145,-0.6162,-0.6179,-0.6193,-0.6207,-0.6221,-0.623,-0.6236,-0.625,-0.627,-0.6283,-0.6307,-0.6328,-0.6347,-0.6356,-0.6355,-0.6355,-0.636,-0.636,-0.6357,-0.636,-0.6308,-0.6354,-0.6354,-0.6354,-0.6354,-0.6354,-0.6174,-0.6189,-0.6202,-0.622,-0.623,-0.6242,-0.6257,-0.6264,-0.6281,-0.6301,-0.6302,-0.6324,-0.6338,-0.6364,-0.6373,-0.6391,-0.6386,-0.6394,-0.6396,-0.6398,-0.6399,-0.6353,-0.6394,-0.6394,-0.6394,-0.6394,-0.6394,0,-0.6217,-0.6225,-0.6241,-0.626,-0.6274,-0.6269,-0.6284,-0.6296,-0.6315,-0.6328,-0.6343,-0.6367,-0.6385,-0.6396,-0.6415,-0.6427,-0.6427,-0.6432,-0.6432,-0.6434,-0.6402,-0.6396,-0.6431,-0.6431,-0.6431,-0.6431,-0.6431,-0.6431,-0.6241,-0.6266,-0.6269,-0.6298,-0.6306,-0.6327,-0.6335,-0.6347,-0.6356,-0.6382,-0.6397,-0.6403,-0.6415,-0.6434,-0.6451,-0.6454,-0.6461,-0.6467,-0.6469,-0.644,-0.6436,-0.6432,-0.6427,-0.6468,-0.6468,-0.65,-0.65,-0.65]}]]